Year,Month,Day,Hour,Minute,Value (Times are PST for temperature in C)
2016,08,22,00,00,11.50
2016,08,22,00,01,11.50
2016,08,22,00,02,11.40
2016,08,22,00,03,11.40
2016,08,22,00,04,11.30
2016,08,22,00,05,11.30
2016,08,22,00,06,11.30
2016,08,22,00,07,11.20
2016,08,22,00,08,11.20
2016,08,22,00,09,11.20
2016,08,22,00,10,11.20
2016,08,22,00,11,11.20
2016,08,22,00,12,11.20
2016,08,22,00,13,11.20
2016,08,22,00,14,11.20
2016,08,22,00,15,11.20
2016,08,22,00,16,11.20
2016,08,22,00,17,11.20
2016,08,22,00,18,11.20
2016,08,22,00,19,11.20
2016,08,22,00,20,11.20
2016,08,22,00,21,11.20
2016,08,22,00,22,11.20
2016,08,22,00,23,11.20
2016,08,22,00,24,11.20
2016,08,22,00,25,11.20
2016,08,22,00,26,11.10
2016,08,22,00,27,11.10
2016,08,22,00,28,11.10
2016,08,22,00,29,11.00
2016,08,22,00,30,11.00
2016,08,22,00,31,11.00
2016,08,22,00,32,10.90
2016,08,22,00,33,10.90
2016,08,22,00,34,10.90
2016,08,22,00,35,10.90
2016,08,22,00,36,10.90
2016,08,22,00,37,10.80
2016,08,22,00,38,10.80
2016,08,22,00,39,10.80
2016,08,22,00,40,10.80
2016,08,22,00,41,10.80
2016,08,22,00,42,10.80
2016,08,22,00,43,10.80
2016,08,22,00,44,10.80
2016,08,22,00,45,10.80
2016,08,22,00,46,10.80
2016,08,22,00,47,10.80
2016,08,22,00,48,10.80
2016,08,22,00,49,10.80
2016,08,22,00,50,10.80
2016,08,22,00,51,10.80
2016,08,22,00,52,10.80
2016,08,22,00,53,10.80
2016,08,22,00,54,10.80
2016,08,22,00,55,10.80
2016,08,22,00,56,10.80
2016,08,22,00,57,10.80
2016,08,22,00,58,10.70
2016,08,22,00,59,10.70
2016,08,22,01,00,10.70
2016,08,22,01,01,10.70
2016,08,22,01,02,10.70
2016,08,22,01,03,10.70
2016,08,22,01,04,10.70
2016,08,22,01,05,10.70
2016,08,22,01,06,10.70
2016,08,22,01,07,10.70
2016,08,22,01,08,10.70
2016,08,22,01,09,10.70
2016,08,22,01,10,10.60
2016,08,22,01,11,10.60
2016,08,22,01,12,10.60
2016,08,22,01,13,10.60
2016,08,22,01,14,10.50
2016,08,22,01,15,10.50
2016,08,22,01,16,10.50
2016,08,22,01,17,10.50
2016,08,22,01,18,10.50
2016,08,22,01,19,10.60
2016,08,22,01,20,10.60
2016,08,22,01,21,10.60
2016,08,22,01,22,10.60
2016,08,22,01,23,10.60
2016,08,22,01,24,10.60
2016,08,22,01,25,10.60
2016,08,22,01,26,10.60
2016,08,22,01,27,10.60
2016,08,22,01,28,10.60
2016,08,22,01,29,10.70
2016,08,22,01,30,10.70
2016,08,22,01,31,10.70
2016,08,22,01,32,10.70
2016,08,22,01,33,10.60
2016,08,22,01,34,10.60
2016,08,22,01,35,10.60
2016,08,22,01,36,10.60
2016,08,22,01,37,10.60
2016,08,22,01,38,10.60
2016,08,22,01,39,10.70
2016,08,22,01,40,10.70
2016,08,22,01,41,10.70
2016,08,22,01,42,10.60
2016,08,22,01,43,10.60
2016,08,22,01,44,10.60
2016,08,22,01,45,10.60
2016,08,22,01,46,10.50
2016,08,22,01,47,10.50
2016,08,22,01,48,10.50
2016,08,22,01,49,10.40
2016,08,22,01,50,10.40
2016,08,22,01,51,10.40
2016,08,22,01,52,10.30
2016,08,22,01,53,10.30
2016,08,22,01,54,10.30
2016,08,22,01,55,10.40
2016,08,22,01,56,10.50
2016,08,22,01,57,10.60
2016,08,22,01,58,10.80
2016,08,22,01,59,10.90
2016,08,22,02,00,11.00
2016,08,22,02,01,11.00
2016,08,22,02,02,11.10
2016,08,22,02,03,11.10
2016,08,22,02,04,11.10
2016,08,22,02,05,11.10
2016,08,22,02,06,11.10
2016,08,22,02,07,11.00
2016,08,22,02,08,11.00
2016,08,22,02,09,10.90
2016,08,22,02,10,10.90
2016,08,22,02,11,10.80
2016,08,22,02,12,10.80
2016,08,22,02,13,10.80
2016,08,22,02,14,10.80
2016,08,22,02,15,10.70
2016,08,22,02,16,10.70
2016,08,22,02,17,10.60
2016,08,22,02,18,10.60
2016,08,22,02,19,10.60
2016,08,22,02,20,10.60
2016,08,22,02,21,10.60
2016,08,22,02,22,10.60
2016,08,22,02,23,10.60
2016,08,22,02,24,10.60
2016,08,22,02,25,10.60
2016,08,22,02,26,10.50
2016,08,22,02,27,10.50
2016,08,22,02,28,10.40
2016,08,22,02,29,10.40
2016,08,22,02,30,10.40
2016,08,22,02,31,10.40
2016,08,22,02,32,10.40
2016,08,22,02,33,10.40
2016,08,22,02,34,10.30
2016,08,22,02,35,10.30
2016,08,22,02,36,10.30
2016,08,22,02,37,10.30
2016,08,22,02,38,10.30
2016,08,22,02,39,10.30
2016,08,22,02,40,10.20
2016,08,22,02,41,10.20
2016,08,22,02,42,10.10
2016,08,22,02,43,10.10
2016,08,22,02,44,10.10
2016,08,22,02,45,10.10
2016,08,22,02,46,10.10
2016,08,22,02,47,10.10
2016,08,22,02,48,10.10
2016,08,22,02,49,10.10
2016,08,22,02,50,10.10
2016,08,22,02,51,10.10
2016,08,22,02,52,10.10
2016,08,22,02,53,10.10
2016,08,22,02,54,10.10
2016,08,22,02,55,10.00
2016,08,22,02,56,10.00
2016,08,22,02,57,10.00
2016,08,22,02,58,10.00
2016,08,22,02,59,10.00
2016,08,22,03,00,10.00
2016,08,22,03,01,10.00
2016,08,22,03,02,10.00
2016,08,22,03,03,10.00
2016,08,22,03,04,10.00
2016,08,22,03,05,10.00
2016,08,22,03,06,10.00
2016,08,22,03,07,10.00
2016,08,22,03,08,10.00
2016,08,22,03,09,10.10
2016,08,22,03,10,10.10
2016,08,22,03,11,10.00
2016,08,22,03,12,10.00
2016,08,22,03,13,10.00
2016,08,22,03,14,10.00
2016,08,22,03,15,10.00
2016,08,22,03,16,10.00
2016,08,22,03,17,9.90
2016,08,22,03,18,9.90
2016,08,22,03,19,9.90
2016,08,22,03,20,9.80
2016,08,22,03,21,9.80
2016,08,22,03,22,9.80
2016,08,22,03,23,9.90
2016,08,22,03,24,9.90
2016,08,22,03,25,9.90
2016,08,22,03,26,9.80
2016,08,22,03,27,9.80
2016,08,22,03,28,9.80
2016,08,22,03,29,9.80
2016,08,22,03,30,9.80
2016,08,22,03,31,9.80
2016,08,22,03,32,9.80
2016,08,22,03,33,9.80
2016,08,22,03,34,9.70
2016,08,22,03,35,9.70
2016,08,22,03,36,9.70
2016,08,22,03,37,9.70
2016,08,22,03,38,9.70
2016,08,22,03,39,9.70
2016,08,22,03,40,9.70
2016,08,22,03,41,9.60
2016,08,22,03,42,9.60
2016,08,22,03,43,9.60
2016,08,22,03,44,9.60
2016,08,22,03,45,9.50
2016,08,22,03,46,9.50
2016,08,22,03,47,9.50
2016,08,22,03,48,9.50
2016,08,22,03,49,9.50
2016,08,22,03,50,9.50
2016,08,22,03,51,9.50
2016,08,22,03,52,9.60
2016,08,22,03,53,9.60
2016,08,22,03,54,9.70
2016,08,22,03,55,9.70
2016,08,22,03,56,9.80
2016,08,22,03,57,9.80
2016,08,22,03,58,9.80
2016,08,22,03,59,9.80
2016,08,22,04,00,9.80
2016,08,22,04,01,9.80
2016,08,22,04,02,9.90
2016,08,22,04,03,9.90
2016,08,22,04,04,9.90
2016,08,22,04,05,9.90
2016,08,22,04,06,9.90
2016,08,22,04,07,9.90
2016,08,22,04,08,9.90
2016,08,22,04,09,10.00
2016,08,22,04,10,10.00
2016,08,22,04,11,10.10
2016,08,22,04,12,10.10
2016,08,22,04,13,10.20
2016,08,22,04,14,10.20
2016,08,22,04,15,10.20
2016,08,22,04,16,10.20
2016,08,22,04,17,10.20
2016,08,22,04,18,10.20
2016,08,22,04,19,10.20
2016,08,22,04,20,10.20
2016,08,22,04,21,10.10
2016,08,22,04,22,10.10
2016,08,22,04,23,10.00
2016,08,22,04,24,9.90
2016,08,22,04,25,9.90
2016,08,22,04,26,9.80
2016,08,22,04,27,9.80
2016,08,22,04,28,9.80
2016,08,22,04,29,9.80
2016,08,22,04,30,9.90
2016,08,22,04,31,9.90
2016,08,22,04,32,9.90
2016,08,22,04,33,9.90
2016,08,22,04,34,9.90
2016,08,22,04,35,9.90
2016,08,22,04,36,9.80
2016,08,22,04,37,9.80
2016,08,22,04,38,9.80
2016,08,22,04,39,9.80
2016,08,22,04,40,9.80
2016,08,22,04,41,9.80
2016,08,22,04,42,9.80
2016,08,22,04,43,9.80
2016,08,22,04,44,9.80
2016,08,22,04,45,9.80
2016,08,22,04,46,9.80
2016,08,22,04,47,9.80
2016,08,22,04,48,9.70
2016,08,22,04,49,9.70
2016,08,22,04,50,9.60
2016,08,22,04,51,9.60
2016,08,22,04,52,9.60
2016,08,22,04,53,9.70
2016,08,22,04,54,9.70
2016,08,22,04,55,9.80
2016,08,22,04,56,9.80
2016,08,22,04,57,9.90
2016,08,22,04,58,9.90
2016,08,22,04,59,9.90
2016,08,22,05,00,9.90
2016,08,22,05,01,9.90
2016,08,22,05,02,9.90
2016,08,22,05,03,9.90
2016,08,22,05,04,9.90
2016,08,22,05,05,9.90
2016,08,22,05,06,9.80
2016,08,22,05,07,9.80
2016,08,22,05,08,9.80
2016,08,22,05,09,9.80
2016,08,22,05,10,9.70
2016,08,22,05,11,9.70
2016,08,22,05,12,9.70
2016,08,22,05,13,9.60
2016,08,22,05,14,9.50
2016,08,22,05,15,9.50
2016,08,22,05,16,9.40
2016,08,22,05,17,9.30
2016,08,22,05,18,9.30
2016,08,22,05,19,9.30
2016,08,22,05,20,9.20
2016,08,22,05,21,9.20
2016,08,22,05,22,9.20
2016,08,22,05,23,9.30
2016,08,22,05,24,9.40
2016,08,22,05,25,9.50
2016,08,22,05,26,9.60
2016,08,22,05,27,9.70
2016,08,22,05,28,9.70
2016,08,22,05,29,9.80
2016,08,22,05,30,9.80
2016,08,22,05,31,9.80
2016,08,22,05,32,9.80
2016,08,22,05,33,9.80
2016,08,22,05,34,9.70
2016,08,22,05,35,9.70
2016,08,22,05,36,9.60
2016,08,22,05,37,9.60
2016,08,22,05,38,9.60
2016,08,22,05,39,9.60
2016,08,22,05,40,9.60
2016,08,22,05,41,9.60
2016,08,22,05,42,9.50
2016,08,22,05,43,9.50
2016,08,22,05,44,9.40
2016,08,22,05,45,9.40
2016,08,22,05,46,9.40
2016,08,22,05,47,9.40
2016,08,22,05,48,9.40
2016,08,22,05,49,9.50
2016,08,22,05,50,9.50
2016,08,22,05,51,9.60
2016,08,22,05,52,9.60
2016,08,22,05,53,9.60
2016,08,22,05,54,9.60
2016,08,22,05,55,9.70
2016,08,22,05,56,9.70
2016,08,22,05,57,9.80
2016,08,22,05,58,9.80
2016,08,22,05,59,9.80
2016,08,22,06,00,9.80
2016,08,22,06,01,9.80
2016,08,22,06,02,9.80
2016,08,22,06,03,9.80
2016,08,22,06,04,9.80
2016,08,22,06,05,9.80
2016,08,22,06,06,9.80
2016,08,22,06,07,9.80
2016,08,22,06,08,9.90
2016,08,22,06,09,9.90
2016,08,22,06,10,9.90
2016,08,22,06,11,9.90
2016,08,22,06,12,9.90
2016,08,22,06,13,9.90
2016,08,22,06,14,9.90
2016,08,22,06,15,9.90
2016,08,22,06,16,9.90
2016,08,22,06,17,9.80
2016,08,22,06,18,9.80
2016,08,22,06,19,9.80
2016,08,22,06,20,9.70
2016,08,22,06,21,9.70
2016,08,22,06,22,9.60
2016,08,22,06,23,9.50
2016,08,22,06,24,9.50
2016,08,22,06,25,9.40
2016,08,22,06,26,9.40
2016,08,22,06,27,9.40
2016,08,22,06,28,9.40
2016,08,22,06,29,9.40
2016,08,22,06,30,9.40
2016,08,22,06,31,9.40
2016,08,22,06,32,9.40
2016,08,22,06,33,9.40
2016,08,22,06,34,9.40
2016,08,22,06,35,9.40
2016,08,22,06,36,9.40
2016,08,22,06,37,9.40
2016,08,22,06,38,9.40
2016,08,22,06,39,9.40
2016,08,22,06,40,9.30
2016,08,22,06,41,9.30
2016,08,22,06,42,9.30
2016,08,22,06,43,9.20
2016,08,22,06,44,9.20
2016,08,22,06,45,9.10
2016,08,22,06,46,9.10
2016,08,22,06,47,9.00
2016,08,22,06,48,9.10
2016,08,22,06,49,9.00
2016,08,22,06,50,9.10
2016,08,22,06,51,9.10
2016,08,22,06,52,9.10
2016,08,22,06,53,9.10
2016,08,22,06,54,9.10
2016,08,22,06,55,9.20
2016,08,22,06,56,9.20
2016,08,22,06,57,9.20
2016,08,22,06,58,9.20
2016,08,22,06,59,9.30
2016,08,22,07,00,9.40
2016,08,22,07,01,9.40
2016,08,22,07,02,9.50
2016,08,22,07,03,9.60
2016,08,22,07,04,9.60
2016,08,22,07,05,9.70
2016,08,22,07,06,9.70
2016,08,22,07,07,9.70
2016,08,22,07,08,9.70
2016,08,22,07,09,9.80
2016,08,22,07,10,9.70
2016,08,22,07,11,9.70
2016,08,22,07,12,9.70
2016,08,22,07,13,9.80
2016,08,22,07,14,9.80
2016,08,22,07,15,9.70
2016,08,22,07,16,9.70
2016,08,22,07,17,9.70
2016,08,22,07,18,9.70
2016,08,22,07,19,9.80
2016,08,22,07,20,9.80
2016,08,22,07,21,9.90
2016,08,22,07,22,10.00
2016,08,22,07,23,10.10
2016,08,22,07,24,10.10
2016,08,22,07,25,10.20
2016,08,22,07,26,10.20
2016,08,22,07,27,10.20
2016,08,22,07,28,10.30
2016,08,22,07,29,10.30
2016,08,22,07,30,10.40
2016,08,22,07,31,10.50
2016,08,22,07,32,10.60
2016,08,22,07,33,10.70
2016,08,22,07,34,10.80
2016,08,22,07,35,10.80
2016,08,22,07,36,10.90
2016,08,22,07,37,10.90
2016,08,22,07,38,10.90
2016,08,22,07,39,11.00
2016,08,22,07,40,11.00
2016,08,22,07,41,11.10
2016,08,22,07,42,11.20
2016,08,22,07,43,11.30
2016,08,22,07,44,11.40
2016,08,22,07,45,11.40
2016,08,22,07,46,11.50
2016,08,22,07,47,11.60
2016,08,22,07,48,11.70
2016,08,22,07,49,11.70
2016,08,22,07,50,11.80
2016,08,22,07,51,11.80
2016,08,22,07,52,11.90
2016,08,22,07,53,11.90
2016,08,22,07,54,12.00
2016,08,22,07,55,12.10
2016,08,22,07,56,12.20
2016,08,22,07,57,12.20
2016,08,22,07,58,12.30
2016,08,22,07,59,12.40
2016,08,22,08,00,12.50
2016,08,22,08,01,12.60
2016,08,22,08,02,12.70
2016,08,22,08,03,12.70
2016,08,22,08,04,12.80
2016,08,22,08,05,12.90
2016,08,22,08,06,13.00
2016,08,22,08,07,13.10
2016,08,22,08,08,13.20
2016,08,22,08,09,13.30
2016,08,22,08,10,13.30
2016,08,22,08,11,13.40
2016,08,22,08,12,13.40
2016,08,22,08,13,13.50
2016,08,22,08,14,13.60
2016,08,22,08,15,13.70
2016,08,22,08,16,13.70
2016,08,22,08,17,13.80
2016,08,22,08,18,13.90
2016,08,22,08,19,13.90
2016,08,22,08,20,14.00
2016,08,22,08,21,14.10
2016,08,22,08,22,14.10
2016,08,22,08,23,14.20
2016,08,22,08,24,14.20
2016,08,22,08,25,14.30
2016,08,22,08,26,14.30
2016,08,22,08,27,14.30
2016,08,22,08,28,14.40
2016,08,22,08,29,14.40
2016,08,22,08,30,14.40
2016,08,22,08,31,14.50
2016,08,22,08,32,14.50
2016,08,22,08,33,14.50
2016,08,22,08,34,14.60
2016,08,22,08,35,14.60
2016,08,22,08,36,14.60
2016,08,22,08,37,14.60
2016,08,22,08,38,14.70
2016,08,22,08,39,14.70
2016,08,22,08,40,14.70
2016,08,22,08,41,14.70
2016,08,22,08,42,14.80
2016,08,22,08,43,14.80
2016,08,22,08,44,14.80
2016,08,22,08,45,14.90
2016,08,22,08,46,14.90
2016,08,22,08,47,15.00
2016,08,22,08,48,15.00
2016,08,22,08,49,15.10
2016,08,22,08,50,15.10
2016,08,22,08,51,15.10
2016,08,22,08,52,15.20
2016,08,22,08,53,15.20
2016,08,22,08,54,15.30
2016,08,22,08,55,15.30
2016,08,22,08,56,15.30
2016,08,22,08,57,15.30
2016,08,22,08,58,15.30
2016,08,22,08,59,15.30
2016,08,22,09,00,15.30
2016,08,22,09,01,15.30
2016,08,22,09,02,15.40
2016,08,22,09,03,15.40
2016,08,22,09,04,15.50
2016,08,22,09,05,15.50
2016,08,22,09,06,15.60
2016,08,22,09,07,15.60
2016,08,22,09,08,15.60
2016,08,22,09,09,15.60
2016,08,22,09,10,15.70
2016,08,22,09,11,15.70
2016,08,22,09,12,15.70
2016,08,22,09,13,15.80
2016,08,22,09,14,15.80
2016,08,22,09,15,15.80
2016,08,22,09,16,15.80
2016,08,22,09,17,15.90
2016,08,22,09,18,15.90
2016,08,22,09,19,16.10
2016,08,22,09,20,16.20
2016,08,22,09,21,16.30
2016,08,22,09,22,16.40
2016,08,22,09,23,16.40
2016,08,22,09,24,16.50
2016,08,22,09,25,16.60
2016,08,22,09,26,16.70
2016,08,22,09,27,16.70
2016,08,22,09,28,16.70
2016,08,22,09,29,16.80
2016,08,22,09,30,16.90
2016,08,22,09,31,16.90
2016,08,22,09,32,17.00
2016,08,22,09,33,17.10
2016,08,22,09,34,17.10
2016,08,22,09,35,17.10
2016,08,22,09,36,17.10
2016,08,22,09,37,17.20
2016,08,22,09,38,17.20
2016,08,22,09,39,17.20
2016,08,22,09,40,17.20
2016,08,22,09,41,17.20
2016,08,22,09,42,17.20
2016,08,22,09,43,17.20
2016,08,22,09,44,17.10
2016,08,22,09,45,17.10
2016,08,22,09,46,16.90
2016,08,22,09,47,16.80
2016,08,22,09,48,16.70
2016,08,22,09,49,16.70
2016,08,22,09,50,16.60
2016,08,22,09,51,16.60
2016,08,22,09,52,16.60
2016,08,22,09,53,16.60
2016,08,22,09,54,16.60
2016,08,22,09,55,16.70
2016,08,22,09,56,16.70
2016,08,22,09,57,16.70
2016,08,22,09,58,16.80
2016,08,22,09,59,16.80
2016,08,22,10,00,16.90
2016,08,22,10,01,16.90
2016,08,22,10,02,16.80
2016,08,22,10,03,16.80
2016,08,22,10,04,16.70
2016,08,22,10,05,16.70
2016,08,22,10,06,16.60
2016,08,22,10,07,16.60
2016,08,22,10,08,16.60
2016,08,22,10,09,16.60
2016,08,22,10,10,16.60
2016,08,22,10,11,16.70
2016,08,22,10,12,16.70
2016,08,22,10,13,16.80
2016,08,22,10,14,16.80
2016,08,22,10,15,16.80
2016,08,22,10,16,16.90
2016,08,22,10,17,16.90
2016,08,22,10,18,16.90
2016,08,22,10,19,16.90
2016,08,22,10,20,17.00
2016,08,22,10,21,17.00
2016,08,22,10,22,17.00
2016,08,22,10,23,17.00
2016,08,22,10,24,17.00
2016,08,22,10,25,17.00
2016,08,22,10,26,17.10
2016,08,22,10,27,17.10
2016,08,22,10,28,17.10
2016,08,22,10,29,17.10
2016,08,22,10,30,17.20
2016,08,22,10,31,17.20
2016,08,22,10,32,17.30
2016,08,22,10,33,17.40
2016,08,22,10,34,17.40
2016,08,22,10,35,17.50
2016,08,22,10,36,17.50
2016,08,22,10,37,17.60
2016,08,22,10,38,17.60
2016,08,22,10,39,17.60
2016,08,22,10,40,17.60
2016,08,22,10,41,17.70
2016,08,22,10,42,17.70
2016,08,22,10,43,17.70
2016,08,22,10,44,17.70
2016,08,22,10,45,17.70
2016,08,22,10,46,17.70
2016,08,22,10,47,17.80
2016,08,22,10,48,17.80
2016,08,22,10,49,17.90
2016,08,22,10,50,18.00
2016,08,22,10,51,18.10
2016,08,22,10,52,18.10
2016,08,22,10,53,18.20
2016,08,22,10,54,18.30
2016,08,22,10,55,18.30
2016,08,22,10,56,18.30
2016,08,22,10,57,18.40
2016,08,22,10,58,18.50
2016,08,22,10,59,18.50
2016,08,22,11,00,18.60
2016,08,22,11,01,18.60
2016,08,22,11,02,18.60
2016,08,22,11,03,18.60
2016,08,22,11,04,18.60
2016,08,22,11,05,18.60
2016,08,22,11,06,18.60
2016,08,22,11,07,18.70
2016,08,22,11,08,18.80
2016,08,22,11,09,18.80
2016,08,22,11,10,18.80
2016,08,22,11,11,18.80
2016,08,22,11,12,18.80
2016,08,22,11,13,18.80
2016,08,22,11,14,18.80
2016,08,22,11,15,18.90
2016,08,22,11,16,18.90
2016,08,22,11,17,19.00
2016,08,22,11,18,19.10
2016,08,22,11,19,19.20
2016,08,22,11,20,19.30
2016,08,22,11,21,19.30
2016,08,22,11,22,19.40
2016,08,22,11,23,19.40
2016,08,22,11,24,19.40
2016,08,22,11,25,19.40
2016,08,22,11,26,19.40
2016,08,22,11,27,19.40
2016,08,22,11,28,19.40
2016,08,22,11,29,19.40
2016,08,22,11,30,19.40
2016,08,22,11,31,19.50
2016,08,22,11,32,19.50
2016,08,22,11,33,19.60
2016,08,22,11,34,19.60
2016,08,22,11,35,19.70
2016,08,22,11,36,19.70
2016,08,22,11,37,19.80
2016,08,22,11,38,19.80
2016,08,22,11,39,19.80
2016,08,22,11,40,19.90
2016,08,22,11,41,19.90
2016,08,22,11,42,19.90
2016,08,22,11,43,20.00
2016,08,22,11,44,20.00
2016,08,22,11,45,20.10
2016,08,22,11,46,20.00
2016,08,22,11,47,20.00
2016,08,22,11,48,19.90
2016,08,22,11,49,19.80
2016,08,22,11,50,19.70
2016,08,22,11,51,19.70
2016,08,22,11,52,19.70
2016,08,22,11,53,19.70
2016,08,22,11,54,19.70
2016,08,22,11,55,19.80
2016,08,22,11,56,19.90
2016,08,22,11,57,19.90
2016,08,22,11,58,20.00
2016,08,22,11,59,20.00
2016,08,22,12,00,20.00
2016,08,22,12,01,20.00
2016,08,22,12,02,19.80
2016,08,22,12,03,19.80
2016,08,22,12,04,19.80
2016,08,22,12,05,19.80
2016,08,22,12,06,19.80
2016,08,22,12,07,19.80
2016,08,22,12,08,19.80
2016,08,22,12,09,19.80
2016,08,22,12,10,19.80
2016,08,22,12,11,19.80
2016,08,22,12,12,19.70
2016,08,22,12,13,19.70
2016,08,22,12,14,19.70
2016,08,22,12,15,19.80
2016,08,22,12,16,19.70
2016,08,22,12,17,19.70
2016,08,22,12,18,19.60
2016,08,22,12,19,19.50
2016,08,22,12,20,19.50
2016,08,22,12,21,19.40
2016,08,22,12,22,19.40
2016,08,22,12,23,19.40
2016,08,22,12,24,19.50
2016,08,22,12,25,19.60
2016,08,22,12,26,19.60
2016,08,22,12,27,19.70
2016,08,22,12,28,19.80
2016,08,22,12,29,19.80
2016,08,22,12,30,19.80
2016,08,22,12,31,19.80
2016,08,22,12,32,19.80
2016,08,22,12,33,19.90
2016,08,22,12,34,19.90
2016,08,22,12,35,20.00
2016,08,22,12,36,20.10
2016,08,22,12,37,20.10
2016,08,22,12,38,20.20
2016,08,22,12,39,20.20
2016,08,22,12,40,20.30
2016,08,22,12,41,20.30
2016,08,22,12,42,20.30
2016,08,22,12,43,20.30
2016,08,22,12,44,20.30
2016,08,22,12,45,20.30
2016,08,22,12,46,20.30
2016,08,22,12,47,20.30
2016,08,22,12,48,20.30
2016,08,22,12,49,20.30
2016,08,22,12,50,20.20
2016,08,22,12,51,20.20
2016,08,22,12,52,20.20
2016,08,22,12,53,20.10
2016,08,22,12,54,20.10
2016,08,22,12,55,20.00
2016,08,22,12,56,20.00
2016,08,22,12,57,19.90
2016,08,22,12,58,19.90
2016,08,22,12,59,19.90
2016,08,22,13,00,19.80
2016,08,22,13,01,19.80
2016,08,22,13,02,19.80
2016,08,22,13,03,19.80
2016,08,22,13,04,19.80
2016,08,22,13,05,19.80
2016,08,22,13,06,19.80
2016,08,22,13,07,19.80
2016,08,22,13,08,19.80
2016,08,22,13,09,19.80
2016,08,22,13,10,19.90
2016,08,22,13,11,19.90
2016,08,22,13,12,19.90
2016,08,22,13,13,20.00
2016,08,22,13,14,20.10
2016,08,22,13,15,20.00
2016,08,22,13,16,20.00
2016,08,22,13,17,20.00
2016,08,22,13,18,19.90
2016,08,22,13,19,19.90
2016,08,22,13,20,19.90
2016,08,22,13,21,20.00
2016,08,22,13,22,20.00
2016,08,22,13,23,20.10
2016,08,22,13,24,20.20
2016,08,22,13,25,20.30
2016,08,22,13,26,20.30
2016,08,22,13,27,20.20
2016,08,22,13,28,20.20
2016,08,22,13,29,20.10
2016,08,22,13,30,20.00
2016,08,22,13,31,20.00
2016,08,22,13,32,20.00
2016,08,22,13,33,20.00
2016,08,22,13,34,20.10
2016,08,22,13,35,20.10
2016,08,22,13,36,20.20
2016,08,22,13,37,20.20
2016,08,22,13,38,20.30
2016,08,22,13,39,20.30
2016,08,22,13,40,20.30
2016,08,22,13,41,20.30
2016,08,22,13,42,20.30
2016,08,22,13,43,20.30
2016,08,22,13,44,20.30
2016,08,22,13,45,20.30
2016,08,22,13,46,20.30
2016,08,22,13,47,20.30
2016,08,22,13,48,20.30
2016,08,22,13,49,20.30
2016,08,22,13,50,20.30
2016,08,22,13,51,20.30
2016,08,22,13,52,20.30
2016,08,22,13,53,20.30
2016,08,22,13,54,20.30
2016,08,22,13,55,20.40
2016,08,22,13,56,20.50
2016,08,22,13,57,20.50
2016,08,22,13,58,20.50
2016,08,22,13,59,20.50
2016,08,22,14,00,20.50
2016,08,22,14,01,20.50
2016,08,22,14,02,20.50
2016,08,22,14,03,20.60
2016,08,22,14,04,20.60
2016,08,22,14,05,20.70
2016,08,22,14,06,20.80
2016,08,22,14,07,20.80
2016,08,22,14,08,20.80
2016,08,22,14,09,20.80
2016,08,22,14,10,20.80
2016,08,22,14,11,20.80
2016,08,22,14,12,20.80
2016,08,22,14,13,20.80
2016,08,22,14,14,20.90
2016,08,22,14,15,20.90
2016,08,22,14,16,20.90
2016,08,22,14,17,20.80
2016,08,22,14,18,20.80
2016,08,22,14,19,20.80
2016,08,22,14,20,20.80
2016,08,22,14,21,20.90
2016,08,22,14,22,21.00
2016,08,22,14,23,21.00
2016,08,22,14,24,21.10
2016,08,22,14,25,21.20
2016,08,22,14,26,21.20
2016,08,22,14,27,21.20
2016,08,22,14,28,21.30
2016,08,22,14,29,21.30
2016,08,22,14,30,21.30
2016,08,22,14,31,21.20
2016,08,22,14,32,21.10
2016,08,22,14,33,21.10
2016,08,22,14,34,21.10
2016,08,22,14,35,21.10
2016,08,22,14,36,21.10
2016,08,22,14,37,21.20
2016,08,22,14,38,21.20
2016,08,22,14,39,21.20
2016,08,22,14,40,21.30
2016,08,22,14,41,21.30
2016,08,22,14,42,21.30
2016,08,22,14,43,21.30
2016,08,22,14,44,21.30
2016,08,22,14,45,21.30
2016,08,22,14,46,21.40
2016,08,22,14,47,21.40
2016,08,22,14,48,21.40
2016,08,22,14,49,21.40
2016,08,22,14,50,21.40
2016,08,22,14,51,21.30
2016,08,22,14,52,21.20
2016,08,22,14,53,21.30
2016,08,22,14,54,21.30
2016,08,22,14,55,21.30
2016,08,22,14,56,21.30
2016,08,22,14,57,21.40
2016,08,22,14,58,21.50
2016,08,22,14,59,21.60
2016,08,22,15,00,21.60
2016,08,22,15,01,21.60
2016,08,22,15,02,21.60
2016,08,22,15,03,21.70
2016,08,22,15,04,21.70
2016,08,22,15,05,21.60
2016,08,22,15,06,21.60
2016,08,22,15,07,21.60
2016,08,22,15,08,21.60
2016,08,22,15,09,21.60
2016,08,22,15,10,21.60
2016,08,22,15,11,21.60
2016,08,22,15,12,21.70
2016,08,22,15,13,21.80
2016,08,22,15,14,21.90
2016,08,22,15,15,22.00
2016,08,22,15,16,22.00
2016,08,22,15,17,22.10
2016,08,22,15,18,22.20
2016,08,22,15,19,22.20
2016,08,22,15,20,22.30
2016,08,22,15,21,22.40
2016,08,22,15,22,22.40
2016,08,22,15,23,22.30
2016,08,22,15,24,22.30
2016,08,22,15,25,22.30
2016,08,22,15,26,22.30
2016,08,22,15,27,22.30
2016,08,22,15,28,22.30
2016,08,22,15,29,22.20
2016,08,22,15,30,22.20
2016,08,22,15,31,22.10
2016,08,22,15,32,22.10
2016,08,22,15,33,22.00
2016,08,22,15,34,22.00
2016,08,22,15,35,21.90
2016,08,22,15,36,21.90
2016,08,22,15,37,21.90
2016,08,22,15,38,21.80
2016,08,22,15,39,21.80
2016,08,22,15,40,21.80
2016,08,22,15,41,21.80
2016,08,22,15,42,21.80
2016,08,22,15,43,21.70
2016,08,22,15,44,21.60
2016,08,22,15,45,21.60
2016,08,22,15,46,21.60
2016,08,22,15,47,21.50
2016,08,22,15,48,21.40
2016,08,22,15,49,21.40
2016,08,22,15,50,21.40
2016,08,22,15,51,21.40
2016,08,22,15,52,21.30
2016,08,22,15,53,21.30
2016,08,22,15,54,21.30
2016,08,22,15,55,21.30
2016,08,22,15,56,21.30
2016,08,22,15,57,21.40
2016,08,22,15,58,21.40
2016,08,22,15,59,21.40
2016,08,22,16,00,21.40
2016,08,22,16,01,21.40
2016,08,22,16,02,21.50
2016,08,22,16,03,21.50
2016,08,22,16,04,21.60
2016,08,22,16,05,21.60
2016,08,22,16,06,21.70
2016,08,22,16,07,21.80
2016,08,22,16,08,21.80
2016,08,22,16,09,21.90
2016,08,22,16,10,22.00
2016,08,22,16,11,22.00
2016,08,22,16,12,22.10
2016,08,22,16,13,22.10
2016,08,22,16,14,22.10
2016,08,22,16,15,22.10
2016,08,22,16,16,22.10
2016,08,22,16,17,22.00
2016,08,22,16,18,22.00
2016,08,22,16,19,22.00
2016,08,22,16,20,22.10
2016,08,22,16,21,22.10
2016,08,22,16,22,22.10
2016,08,22,16,23,22.20
2016,08,22,16,24,22.20
2016,08,22,16,25,22.20
2016,08,22,16,26,22.20
2016,08,22,16,27,22.20
2016,08,22,16,28,22.10
2016,08,22,16,29,22.00
2016,08,22,16,30,22.00
2016,08,22,16,31,22.00
2016,08,22,16,32,22.00
2016,08,22,16,33,22.00
2016,08,22,16,34,22.00
2016,08,22,16,35,22.10
2016,08,22,16,36,22.10
2016,08,22,16,37,22.10
2016,08,22,16,38,22.10
2016,08,22,16,39,22.10
2016,08,22,16,40,22.10
2016,08,22,16,41,22.10
2016,08,22,16,42,22.10
2016,08,22,16,43,22.20
2016,08,22,16,44,22.20
2016,08,22,16,45,22.20
2016,08,22,16,46,22.20
2016,08,22,16,47,22.30
2016,08,22,16,48,22.30
2016,08,22,16,49,22.40
2016,08,22,16,50,22.40
2016,08,22,16,51,22.40
2016,08,22,16,52,22.40
2016,08,22,16,53,22.30
2016,08,22,16,54,22.30
2016,08,22,16,55,22.30
2016,08,22,16,56,22.30
2016,08,22,16,57,22.30
2016,08,22,16,58,22.30
2016,08,22,16,59,22.30
2016,08,22,17,00,22.30
2016,08,22,17,01,22.30
2016,08,22,17,02,22.30
2016,08,22,17,03,22.30
2016,08,22,17,04,22.30
2016,08,22,17,05,22.30
2016,08,22,17,06,22.30
2016,08,22,17,07,22.40
2016,08,22,17,08,22.50
2016,08,22,17,09,22.60
2016,08,22,17,10,22.70
2016,08,22,17,11,22.80
2016,08,22,17,12,22.80
2016,08,22,17,13,22.80
2016,08,22,17,14,22.80
2016,08,22,17,15,22.80
2016,08,22,17,16,22.70
2016,08,22,17,17,22.60
2016,08,22,17,18,22.60
2016,08,22,17,19,22.50
2016,08,22,17,20,22.50
2016,08,22,17,21,22.40
2016,08,22,17,22,22.30
2016,08,22,17,23,22.30
2016,08,22,17,24,22.30
2016,08,22,17,25,22.30
2016,08,22,17,26,22.20
2016,08,22,17,27,22.20
2016,08,22,17,28,22.10
2016,08,22,17,29,22.10